Погода в Кандалакше

Погода в Кандалакше : погода сейчас, прогноз погоды и архив. Всё, что Вы хотите узнать о погоде в Кандалакше!

Хотите узнать прогноз погоды в Кандалакше? Тогда Вам сюда: Погода в Кандалакше

Поиск расширенной информации на нашем сайте:

Полезная информация: Сварочные технологии сварочное оборудование.

Другие новости

Новости СМИ2

Главная страница сайта

Новости сайта

03.07.2017

Напоминаем, что на нашем специализированном сайте Метеоцентр.Азия вы можете получить высокодетализированные автоматические прогнозы погоды по пунктам России, СНГ и мира в авиационном формате (включающие направление и скорость ветра, видимость, явления погоды, количество и форму облачности, нижнюю и верхнюю границу облачности).

Рекомендуем: Мы предлагаем Вам cкачать программу исправления ошибок.

Погода в Кандалакше - сегодня

Время (UTC), дата Ветер
(°,м/с) 
Видим.   Явления Облачность Т
(°С)
Тd
(°С)
f(%) Тe
(°С)
Pmin
(гПа)
dP
(гПа)
Po
(мм)
O2
(г/м3)
Тmin Tmax R s Состояние
почвы
18 07.07.18 060 (СВ) 3-7{10}  20000 м  осадки на расстоянии  9/8 300 м кучево-дожд., средняя, верхняя 
[Cb cap|Ac lent|Ci fib]
+19.4 +3.9 36 +20  1012.3  1.2  757  284    +22.3       
09 08.07.18 010 (С) 2-6  20000 м    1/1 600 м 
[Cu hum]
+19.4 +6.9 44 +20  1016.2  -0.3  760  285           
21 08.07.18 040 (СВ) 2-3  20000 м    ясно 
+12 +6.1 67 +12  1016.8  1.1  760  292           
09 09.07.18 180 (Ю) 2-4  20000 м    3/0 средняя, верхняя 
[Ac lent|Cs]
+19.9 +4.4 36 +21  1018.8  0.4  762  285           
15 09.07.18 170 (Ю) 2-4  20000 м    ясно 
+22.1 +7.5 39 +22  1019.6  0.4  762  283           
21 09.07.18 020 (С) 2-3  20000 м    ясно 
+13.5 +8.9 74 +14  1022.1  1.5  764  292           
00 10.07.18 310 (СЗ) 1-1  20000 м    ясно 
+10.1 +7.4 83 +11  1023.9  1.7  766  296           
09 10.07.18 170 (Ю) 2-4  20000 м    1/1 600 м 
[Cu hum]
+21.5 +8.7 44 +22  1025.3  -0.1  767  285           
15 10.07.18 170 (Ю) 2-5  20000 м    ясно 
+22.9 +5.5 32 +23  1024.3  -0.5  766  284           
21 10.07.18 020 (С) 2-3  20000 м    ясно 
+12.6 +7.3 70 +13  1024.8  0.5  766  294           
00 11.07.18 010 (С) 2-3  20000 м    ясно 
+8.4 +5.5 82 +8  1025  0.1  766  299           
09 11.07.18 180 (Ю) 2-4  20000 м    ясно 
+21.6 +11.7 53 +25  1024.1  -0.5  766  284           
12 11.07.18 170 (Ю) 2-5  20000 м    ясно 
+23.3 +9.8 42 +24  1023.2  -0.9  765  282           
15 11.07.18 170 (Ю) 3-5  20000 м    ясно 
+22.7 +7.2 37 +23  1022.3  -0.9  764  283           
21 11.07.18 360 (С) 2-2  20000 м    1/0 верхняя 
[Cc]
+13.8 +8.4 70 +14  1022.9  0.6  765  292           
09 12.07.18 160 (Ю) 3-5  20000 м    4/0 верхняя 
[Cc]
+21.7 +10.9 50 +24  1021.9  -0.6  764  283           
21 12.07.18 230 (ЮЗ) 1-2  20000 м    3/0 средняя, верхняя 
[Ac lent|Ci fib]
+13.4 +9.6 78 +15  1019.2  -0.2  762  291           
09 13.07.18 170 (Ю) 3-6  20000 м    1/0 верхняя 
[Ci fib]
+22 +7.7 40 +22  1017.5  -0.6  761  282           
12 13.07.18 170 (Ю) 2-5  20000 м    ясно 
+23.8 +9.3 40 +24  1016.3  -1.2  760  280           
15 13.07.18 160 (Ю) 3-5  20000 м    ясно 
+23.1 +8 38 +23  1015.3  -1  759  281           
21 13.07.18 230 (ЮЗ) 1-3  20000 м    1/0 верхняя 
[Cs]
+15.6 +11.6 77 +20  1015.4  0.3  759  287           
09 14.07.18 180 (Ю) 3-6  20000 м    9/1 600 м верхняя 
[Cu hum|Cc]
+20.4 +9.7 50 +21  1013.8  -0.6  758  283           
21 14.07.18 050 (СВ) 1-2  20000 м    9/4 600 м средняя, верхняя 
[Sc|Ac lent|Cc]
+16.3 +11.1 71 +20  1011.8  0.3  757  286           
09 16.07.18 180 (Ю) 2-4  20000 м    4/4 600 м кучево-дожд. 
[Cb cap]
+25.9 +12.9 45 +31  1014.6  0.3  759  277           
21 16.07.18 360 (С) 1-1  20000 м    ясно 
+17.7 +13.6 77 +25  1019.8  2.1  763  286           
Время (UTC), дата Ветер
(°,м/с) 
Видим.   Явления Облачность Т
(°С)
Тd
(°С)
f(%) Тe
(°С)
Pmin
(гПа)
dP
(гПа)
Po
(мм)
O2
(г/м3)
Тmin Tmax R s Состояние
почвы

Для получения пояснительной информации подведите курсор к названию столбца.

ПОГОДА в Кандалакше - архив

Всё, что Вы хотите узнать о погоде в Кандалакше - удобно и подробно!

Выберите нужную дату (начиная с 1 января 2015* года) и нажмите кнопку "Найти".
Будут отображены архивные сводки погоды по пункту Кандалакша, начиная с указанной даты.


Отображать данные в формате CSV (для использования в таблицах Excel)


Внимание! Наш архив погоды предназначен исключительно для личного некоммерческого использования в познавательных целях. Если Вам необходимы официальные справки о состоянии погоды (для производственных, юридических, коммерческих и т.п. целей), обращайтесь в органы Росгидромета.

*Примечание: данная дата относится к архиву по метеостанциям СССР (Россия, СНГ, Балтия).
Архив по метеостанциям Зарубежной Европы и Азии (кроме Китая) хранится 10 дней, по другим регионам земного шара (Китай, Африка, Америка, Австралия, Океания) - 1 день.

Кандалакша - район местоположения метеостанции


Название, широта, долгота, высота метеостанции:
Кандалакша 67.2°ш. 32.3°д. 25 м над ур. моря [Российская Федерация]

Дополнительная информация

В oтличие oт бoльшинства пoгoдных сайтoв мы публикуем пoдрoбную метеoинфoрмацию в детальнoм прoфессиoнальнoм фoрмате.

Характеристики температуры и влажнoсти вoздуха измеряются на высoте 2 м в тени вдали oт зданий и деревьев.
Скoрoсть ветра измеряется на высoте 10 м (на урoвне рoста челoвека скoрoсть ветра ниже в 1.5-2 раза). Если метеoстанция нахoдится в гoрoде или в лесу, тo скoрoсть ветра занижена на 2-4 м/с пo сравнению с oткрытым местoм. Скoрoсть ветра над акватoриями крупных рек и oзёр, а также на вершинах хoлмoв на 2-5 м/с выше, чем в oбычных услoвиях.
Атмoсфернoе давление в разных тoчках местнoсти мoжет значительнo oтличаться oт давления на метеoстанции, в зависимoсти oт услoвий рельефа (при пoдъёме на 10 м давление пoнижается примернo на 1 мм рт.ст.).